Погода в Боруджерде

Иран     33°53′48″N   48°45′21″E
темп.,
°C
ветер,
м/с
пор.,
м/с
влажн.,
%
обл.,
%
осадки,
мм/ч
давл.,
гПа
погр.,
м
18 апреля, вс
вс1801:30+13ссз2228100 0.0 101817
04:30+12с2235100 0.0 101814
07:30+11с22421 0.0 101912
10:30+18св11260 0.0 1018903
13:30+21ююв11194 0.0 10163166
16:30+22ююз131549 0.0 10133567
19:30+20сз342181 0.0 101470
22:30+16зсз33235 0.0 101618
19 апреля, пн
пн1901:30+14зюз112779 0.0 101611
04:30+12юз11315 0.0 101611
07:30+13ю1134100 0.0 101710
10:30+19юв112140 0.0 1016977
13:30+22в131615 0.0 10142534
16:30+23ссз551523 0.0 10122961
19:30+20зсз4524100 0.0 101478
22:30+17сз3326100 0.0 101630
20 апреля, вт
вт2001:30+16ссз3329100 0.0 101617
04:30+14ссз343485 0.0 101730
07:30+14ссз333811 0.0 101830
10:30+20с122475 0.0 10171087
13:30+24с131785 0.0 10142575
16:30+25ссз5516100 0.0 10123406
19:30+21зсз4623100 0.0 1013100
22:30+18з222653 0.0 101411
21 апреля, ср
ср2101:30+16сз222924 0.0 101512
04:30+14сз113622 0.0 101511
07:30+16ссз1135100 0.0 101711
10:30+22ююв012254 0.0 10171034
13:30+25з041475 0.0 10144096
16:30+26зсз441268 0.0 10123930
19:30+22з572189 0.0 1014154
22:30+16ссв113628 0.0 101811
22 апреля, чт
чт2201:30+15з113634 0.0 101811
04:30+14ю11345 0.0 101811
07:30+15ю22331 0.0 101912
10:30+22ю23215 0.0 10181537
13:30+24з3417100 0.0 10163643
16:30+23ссз342160 0.1 10152227
19:30+14ссз5115788 0.6 1020405
22:30+15св014662 0.8 101811